Regional Weather Roundup
Issued by NWS

Home | Current Version | Previous Version | Text Only | Print | Product List | Glossary Off
Versions: 1 2 3 4 5 6 7 8 9 10 11 12 13 14 15 16 17 18 19 20 21 22 23 24 25 26 27 28 29 30 31 32 33 34 35 36 37 38 39 40 41 42 43 44 45 46 47 48 49 50

000
ASUS45 KTFX 311119
RWRMT
MONTANA HOURLY WEATHER ROUNDUP
NATIONAL WEATHER SERVICE GREAT FALLS MT
419 AM MST SAT JAN 31 2015

NOTE: "FAIR" INDICATES FEW OR NO CLOUDS BELOW 12000 FEET WITH NO
SIGNIFICANT WEATHER AND/OR OBSTRUCTIONS TO VISIBILITY.

* THESE STATIONS ARE NOT UNDER NWS QUALITY CONTROL. THEY DO NOT
   REPORT WEATHER SUCH AS PRECIPITATION OR FOG.

MTZ001>007-043-311200-
WEST OF THE DIVIDE
CITY           SKY/WX    TMP DP  RH WIND       PRES   REMARKS
KALISPELL      FOG       25  25 100 CALM      30.12S VSB 3/4
MISSOULA       FOG       21  19  92 W3        30.15S
BUTTE          PTCLDY    18  12  77 S6        30.04F WCI  10
MULLAN PASS    FOG       21  21 100 VRB6      30.05F VSB 1/2  WCI  13
* ANACONDA     MOCLDY    21  14  74 SW6        N/A   WCI  13
* ESSEX        N/A       20  18  92 NW4        N/A
* EUREKA APT   PTCLDY    27  23  85 CALM      30.13S
* HAMILTON APT PTCLDY    23  18  81 CALM      30.10S
* LIBBY APT    MOCLDY    27  25  92 CALM      30.15F
* LINCOLN      N/A       13  10  88 SE1        N/A
* LOOKOUT PASS N/A       23  23 100 VRB8       N/A   WCI  14
* POLSON       N/A       23  22  96 S1         N/A
* RONAN APT    CLOUDY    23  21  92 N/A        N/A
* SEELEY LAKE  N/A       11   8  88 NE3        N/A
* THOMP F APT  CLOUDY    32   9  38 SE2G17     N/A
* YAAK HILL    N/A       30  26  85 N/A        N/A
$$

MTZ008-052>055-311200-
SOUTHWEST MONTANA
CITY           SKY/WX    TMP DP  RH WIND       PRES   REMARKS
BOZEMAN        MOCLDY    21  16  81 CALM      30.04F
DILLON         PTCLDY    21  14  74 S7        30.05S WCI  12
* W YELLOWSTON PTCLDY    -1  -6  79 S1         N/A
* THREE FORKS  MOCLDY    21  21 100 N/A        N/A
* BOULDER HILL N/A       30  11  45 SW8        N/A   WCI  22
* MONIDA PASS  N/A        6   3  87 NW2        N/A
* RAYNOLDS PAS N/A       11 -10  38 SE1        N/A
* WHITEHALL    N/A       23  18  81 W3G11      N/A
* WISE RIVER   N/A       12   8  84 W3G11      N/A
$$

MTZ009>010-012-014-046-048-049-054-311200-
EAST SLOPES AND CENTRAL MONTANA
CITY           SKY/WX    TMP DP  RH WIND       PRES   REMARKS
CUT BANK       FOG       23  21  92 N21       30.07R VSB 1    WCI   8
GREAT FALLS    CLOUDY    28  25  89 NW13G21   30.03R WCI  17
HELENA         PTCLDY    23  19  85 CALM      30.04F
MALMSTROM AFB  LGT SNOW  28  25  89 NW18G31   30.03R WCI  15
* CONRAD       CLOUDY    28  27  96 W8         N/A   WCI  20
* DEARBORN     N/A       35  20  54 N/A        N/A
* EAST GLACIER N/A       23  21  92 NE11G16    N/A   WCI  12
* MONARCH      N/A       28  12  51 NW9G14     N/A   WCI  19
* PENDROY      N/A       25  24  96 VRB16G24    N/A   WCI  12
* ROGERS PASS  N/A       28  16  61 S6G13      N/A   WCI  21
* SWEET GRASS  N/A       21  21 100 N16        N/A   WCI   7
* WHITE SULPH  N/A       23  16  74 NE3        N/A
$$

MTZ011-013-016-021-035-040-045-047-050-051-311200-
NORTH CENTRAL MONTANA
CITY           SKY/WX    TMP DP  RH WIND       PRES   REMARKS
HAVRE          CLOUDY    28  27  96 E13       30.02R WCI  17
LEWISTOWN      CLOUDY    25  18  75 S3        29.94F
* N BAR RANCH  CLEAR     28  12  51 CALM      29.93S
* CHINOOK      CLOUDY    28  27  96 E12       30.05R WCI  18
* CHESTER      N/A       27  24  88 NE12G20    N/A   WCI  16
* DENTON       N/A       23  18  81 SW4        N/A
* GEYSER       N/A       32  18  56 W14        N/A   WCI  22
* JUDITH GAP   N/A       32  16  52 NW8        N/A   WCI  25
* LOMA         N/A       30  26  85 NW11G21    N/A   WCI  21
$$

MTZ017>020-022>027-061-062-311200-
NORTHEAST MONTANA
CITY           SKY/WX    TMP DP  RH WIND       PRES   REMARKS
GLASGOW        FOG       23  19  85 E20G29    30.08S WCI   8
GLENDIVE       CLOUDY    27  25  92 E16       30.07F VSB 2    WCI  15
JORDAN         PTCLDY    25  23  92 E15G22    29.99F WCI  13
SIDNEY         CLOUDY    25  21  85 NE12      30.16F VSB 3    WCI  14
WOLF POINT     CLOUDY    25  19  78 E22       30.15S WCI  10
* BEAVER HILL  N/A       25  24  96 E16G22     N/A   WCI  12
* CIRCLE       N/A       26  25  96 NE17       N/A   WCI  13
* LINDSAY DVD  N/A       24  23  96 E16        N/A   WCI  11
* NAVAJO       N/A       18  16  92 E12G17     N/A   WCI   5
* PLENTYWOOD A MOCLDY    18  16  92 E17G22    30.19S WCI   3
* POPLAR APT   PTCLDY    21  19  92 N/A       30.15S
* SACO         N/A       25  23  92 NE18G24    N/A   WCI  11
$$

MTZ028>042-056>058-311200-
SOUTHCENTRAL AND SOUTHEAST MONTANA
CITY           SKY/WX    TMP DP  RH WIND       PRES   REMARKS
BAKER          MOCLDY    25  21  85 E13       30.03F WCI  13
BILLINGS       FAIR      34  25  70 SW15      29.95F WCI  24
LIVINGSTON     MOCLDY    34  16  48 W16       29.97F WCI  24
MILES CITY     PTCLDY    23  19  85 NE8       29.99F WCI  14
* BIG TIMBER A MOCLDY    36  16  44 SW21G28   29.94F WCI  25
* FORSYTH APT  PTCLDY    23  21  92 CALM      29.97F
* LAUREL APT   CLEAR     28  18  66 N/A        N/A
* ROUNDUP APT  MOCLDY    27  16  63 N/A        N/A
* ALZADA       N/A       28  23  81 E6         N/A   WCI  21
* HYSHAM       N/A       31  20  64 W5         N/A   WCI  26
* LAME DEER    N/A       32  18  56 SE6        N/A   WCI  26
* REED POINT   N/A       18  17  96 N/A        N/A
* ROSCOE HILL  N/A       34   5  29 S11        N/A   WCI  26
$$

REGIONAL REPORTS...DAKOTAS
CITY           SKY/WX    TMP DP  RH WIND       PRES   REMARKS
WILLISTON      CLOUDY    23  19  85 E16       30.19F WCI  10
DICKINSON      FOG       21  19  92 E15       30.10F VSB 3/4  WCI   7
BEACH          FOG       25  25 100 E16       30.08F VSB 1/2  WCI  12
CROSBY         CLOUDY    16  14  92 E15       30.27R WCI   1
TIOGA          CLOUDY    16  16 100 E14       30.23S WCI   2
WATFORD CITY   CLOUDY    23  21  92 E14G20    30.15F WCI  10
BISMARCK       CLOUDY    25  21  85 NE10      30.22F WCI  15
GRAND FORKS    PTCLDY     9   0  66 N23G28    30.34R WCI -11
FARGO          CLOUDY    18  10  71 N23       30.29R WCI   1
BUFFALO SD     MOCLDY    21  19  92 NE9       29.96F WCI  11
RAPID CITY     MOCLDY    28  21  75 N8        30.01F WCI  20
$$

REGIONAL REPORTS...WYOMING/IDAHO/WASHINGTON
CITY           SKY/WX    TMP DP  RH WIND       PRES   REMARKS
GILLETTE       MOCLDY    30  23  75 S10       29.94F WCI  21
SHERIDAN       CLOUDY    27  19  72 W7        29.93S WCI  19
CODY           MOCLDY    21  21 100 W3        29.95R
YELLOWSTONE LA MOCLDY    -8 -13  78 CALM      30.05F
SALMON         CLOUDY    27  19  72 N3        30.21F
MULLAN PASS    FOG       21  21 100 VRB6      30.05S VSB 1/2  WCI  13
SAND POINT     CLOUDY    32  30  92 SW7       30.22S WCI  25
SPOKANE        LGT SNOW  30  28  92 CALM      30.23R VSB 2 1/2
$$

REGIONAL REPORTS...ALBERTA
CITY           SKY/WX    TMP DP  RH WIND       PRES   REMARKS
CALGARY        LGT SNOW  12   9  88 N18G24    30.28R VSB 1    WCI  -5
LETHBRIDGE     LGT SNOW  19  19 100 N9        30.17R VSB 1    WCI   8
MEDICINE HAT   CLOUDY    19  16  88 NE14G24   30.19R WCI   5
EDMONTON       LGT SNOW   3  -2  79 NE13      30.48R VSB 2 1/2 WCI -14
WATERTON GATE  N/A       25  23  92 NE6        N/A   WCI  18
CARDSTON       N/A       23  23 100 N6         N/A   WCI  16
MILK RIVER     N/A       21  21 100 N13        N/A   WCI   8
$$

REGIONAL REPORTS...SASKATCHEWAN
CITY           SKY/WX    TMP DP  RH WIND       PRES   REMARKS
SWIFT CURRENT  LGT SNOW   7   5  91 E23       30.21R VSB 1 3/4 WCI -14
REGINA         LGT SNOW   7   3  83 NE17      30.34S VSB 3    WCI -11
VAL MARIE      N/A       21  19  92 E18G25     N/A   WCI   6
ASSINIBOIA     N/A       10   7  88 E20G25     N/A   WCI  -9
CORONACH       N/A       18  16  92 NE14G21    N/A   WCI   4

$$



USA.gov is the U.S. government's official web portal to all federal, state and local government web resources and services.